Weather History for KHSE - July, 2013

Change the Weather History Date:

Sunday, July 21, 2013

  Actual Average Record
Temperature  
Mean Temperature 81 °F 79 °F  
Max Temperature 85 °F 85 °F 94 °F (1977)
Min Temperature 77 °F 74 °F 64 °F (1976)
Degree Days  
Heating Degree Days 0 0  
Month to date heating degree days 0 0  
Since 1 June heating degree days 0 3  
Since 1 July heating degree days 0 0  
Cooling Degree Days 16 14  
Month to date cooling degree days 333 291  
Year to date cooling degree days 895 742  
Since 1 June cooling degree days 733 599  
Growing Degree Days 31 (Base 50)    
Moisture  
Dew Point 74 °F    
Average Humidity 81    
Maximum Humidity 91    
Minimum Humidity 70    
Precipitation  
Precipitation T in 0.17 in 3.20 in (2005)
Month to date precipitation 1.29 3.19  
Year to date precipitation 26.84 28.46  
Snow  
Snow 0.00 in - - ()
Month to date snowfall 0.0  
Since 1 July snowfall 0.0  
Snow Depth 0.00 in    
Sea Level Pressure  
Sea Level Pressure 30.01 in    
Wind  
Wind Speed 10 mph (SW)    
Max Wind Speed 22 mph    
Max Gust Speed 29 mph    
Visibility 9 miles    
Events      
T = Trace of Precipitation, MM = Missing Value Source: NWS Daily Summary

Daily Weather History Graph

Daily Weather History Graph

Search for Another Location

Airport or City:

Trip Planner

Search our weather history database for the weather conditions in past years. The results will help you decide how hot, cold, wet, or windy it might be!

Date:

Astronomy

Jul. 21, 2013 Rise Set
Actual Time 6:03 AM EDT 8:13 PM EDT
Civil Twilight 5:34 AM EDT 8:42 PM EDT
Nautical Twilight 4:59 AM EDT 9:17 PM EDT
Astronomical Twilight 4:21 AM EDT 9:55 PM EDT
Moon 7:11 PM EDT (7/21) 4:45 AM EDT (7/21)
Length of Visible Light 15h 07m
Length of Day
14h 10m
Waxing Gibbous, 98% of the Moon is Illuminated
Jul 21
Waxing Gibbous
Jul 22
Full
Jul 29
Last Quarter
Aug 6
New
Aug 14
First Quarter

Hourly Weather History & Observations

Time (EDT) Temp. Heat Index Dew Point Humidity Pressure Visibility Wind Dir Wind Speed Gust Speed Precip Events Conditions
12:51 AM 78.1 °F - 73.0 °F 84% 30.03 in 9.0 mi SW 12.7 mph 20.7 mph N/A   Clear
1:51 AM 79.0 °F - 73.0 °F 82% 30.03 in 9.0 mi SW 13.8 mph - N/A   Clear
2:51 AM 79.0 °F - 73.9 °F 84% 30.02 in 9.0 mi SW 12.7 mph - N/A   Clear
3:51 AM 78.1 °F - 73.9 °F 87% 30.01 in 8.0 mi WSW 10.4 mph - N/A   Partly Cloudy
4:51 AM 78.1 °F - 73.9 °F 87% 30.01 in 7.0 mi WSW 6.9 mph - N/A   Clear
5:51 AM 78.1 °F - 73.9 °F 87% 30.02 in 8.0 mi WSW 6.9 mph - N/A   Partly Cloudy
6:51 AM 78.1 °F - 73.9 °F 87% 30.01 in 5.0 mi SW 5.8 mph - N/A   Clear
7:51 AM 80.1 °F 85.1 °F 75.0 °F 85% 30.02 in 7.0 mi SW 5.8 mph - N/A   Clear
8:51 AM 82.0 °F 88.6 °F 75.0 °F 79% 30.03 in 8.0 mi SW 8.1 mph - N/A   Clear
9:51 AM 82.0 °F 88.6 °F 75.0 °F 79% 30.03 in 10.0 mi SSW 8.1 mph - N/A   Partly Cloudy
10:51 AM 82.0 °F 87.4 °F 73.0 °F 74% 30.04 in 10.0 mi SW 9.2 mph - N/A   Partly Cloudy
11:51 AM 82.0 °F 87.4 °F 73.0 °F 74% 30.04 in 10.0 mi SW 6.9 mph - 0.00 in   Mostly Cloudy
12:51 PM 82.9 °F 89.4 °F 73.9 °F 74% 30.04 in 10.0 mi SSW 11.5 mph - N/A   Mostly Cloudy
12:59 PM 82.4 °F 88.2 °F 73.4 °F 74% 30.04 in 10.0 mi SSW 10.4 mph - N/A   Scattered Clouds
1:10 PM 84.2 °F 92.3 °F 75.2 °F 74% 30.04 in 10.0 mi SSW 10.4 mph 17.3 mph N/A   Mostly Cloudy
1:18 PM 84.2 °F 92.3 °F 75.2 °F 74% 30.03 in 10.0 mi SSW 11.5 mph 18.4 mph N/A   Partly Cloudy
1:51 PM 84.9 °F 92.1 °F 73.9 °F 69% 30.03 in 10.0 mi SW 13.8 mph 20.7 mph N/A   Clear
2:51 PM 84.9 °F 93.3 °F 75.0 °F 72% 30.01 in 10.0 mi SW 15.0 mph 24.2 mph N/A   Clear
3:51 PM 84.9 °F 93.3 °F 75.0 °F 72% 29.99 in 10.0 mi SW 10.4 mph 19.6 mph N/A   Clear
4:51 PM 81.0 °F 85.2 °F 72.0 °F 74% 29.98 in 10.0 mi SW 13.8 mph 23.0 mph 0.00 in   Mostly Cloudy
5:51 PM 82.0 °F 87.9 °F 73.9 °F 76% 29.96 in 9.0 mi SW 15.0 mph 21.9 mph N/A   Clear
6:51 PM 81.0 °F 86.2 °F 73.9 °F 79% 29.96 in 8.0 mi SW 10.4 mph - N/A   Clear
7:51 PM 80.1 °F 84.5 °F 73.9 °F 81% 29.99 in 7.0 mi SW 8.1 mph - N/A   Partly Cloudy
8:51 PM 79.0 °F - 73.9 °F 84% 29.99 in 9.0 mi SW 9.2 mph - N/A   Clear
9:51 PM 79.0 °F - 73.9 °F 84% 30.00 in 9.0 mi SW 9.2 mph - N/A   Clear
10:51 PM 79.0 °F - 73.9 °F 84% 30.01 in 8.0 mi SW 8.1 mph - N/A   Clear
11:51 PM 79.0 °F - 75.0 °F 88% 30.00 in 8.0 mi SW 8.1 mph - N/A   Clear